Vorticity
5 5 5 5 7 9 9 9 9 9 9 9 9 9 8 8 8 8 8 6 5 5 5 6 6 5 5 4 4 5 0 4 5
8 8 7 7 6 6 6 5 6 6 6 6 6 7 7 5 6 7 6 5 6 6 6 6 6 6 6 5 5 6 5 3 -2
6 6 7 7 7 8 7 7 7 7 8 8 7 8 9 8 8 8 8 7 7 7 6 6 6 6 6 7 7 6 7 6 6
6 6 6 6 7 6 5 4 4 4 3 3 2 2 3 2 3 3 4 5 5 5 5 6 6 7 7 7 7 7 7 7 7
6 4 3 4 4 5 5 5 6 7 8 7 8 6 6 5 4 5 5 5 5 5 5 5 5 5 6 6 6 6 7 7 7
0 7 4 5 6 2 1 2 2 2 2 3 5 5 5 5 4 5 4 4 5 7 8 7 6 6 6 6 6 6 6 7 7
-1 -1 4 -0 1 6 6 5 4 3 3 4 2 1 4 4 4 4 5 5 3 4 8 8 8 6 6 6 6 6 6 6 6
2 3 1 3 1 -2 -1 3 4 7 6 4 4 5 5 5 4 2 2 7 4 4 8 8 8 7 7 7 6 6 5 5 6
3 4 4 4 4 4 3 -0 -2 4 3 6 4 5 5 5 5 5 4 4 5 5 8 9 7 7 7 7 7 7 6 6 6
4 4 5 5 5 4 4 5 4 3 2 2 4 4 5 6 6 5 7 3 4 6 9 9 7 7 7 7 7 7 7 6 6
5 5 6 7 6 5 5 5 6 5 5 4 3 4 4 6 6 6 6 5 3 4 7 8 6 7 8 7 6 6 6 5 5
6 5 5 7 8 9 9 9 8 7 6 6 6 5 3 5 6 6 5 5 4 3 5 7 7 7 9 8 7 6 6 6 5
8 7 7 7 5 4 4 3 3 6 6 6 6 6 6 5 6 6 6 7 5 4 4 5 6 6 8 9 7 6 6 6 5
7 8 4 3 4 7 9 9 7 4 2 2 2 4 5 4 5 7 8 7 7 5 4 5 6 6 6 8 8 7 6 5 5
5 3 1 1 3 4 7 7 7 8 9 9 8 6 6 7 7 8 9 9 8 8 5 5 6 6 6 6 7 7 6 5 5
6 3 2 4 5 8 5 6 7 6 6 5 8 9 7 8 8 7 11 11 9 8 8 5 4 3 -1 7 6 6 8 6 5
5 5 4 4 3 4 1 8 7 5 6 4 6 5 6 9 11 8 6 7 10 9 9 10 8 2 14 -4 -3 3 2 2 5
4 4 5 4 3 3 5 4 3 4 7 7 5 6 6 6 5 7 7 5 6 9 3 6 9 10 11 8 13 6 6 5 8
2 2 4 6 6 5 2 -3 4 9 7 9 6 5 4 4 4 5 6 4 6 3 5 9 26 9 3 11 10 1 10 9 7
7 6 5 3 1 6 11 15 14 11 10 8 8 5 4 6 6 7 6 8 6 3 3 11 -9 32 -2 6 12 11 16 9 6
Height
3194 3194 3193 3193 3193 3193 3192 3192 3192 3192 3191 3191 3191 3191 3191 3191 3190 3190 3189 3188 3187 3187 3186 3186 3185 3184 3183 3182 3181 3181 3180 3179 3178
3195 3195 3195 3195 3195 3195 3194 3194 3193 3192 3192 3193 3193 3192 3192 3191 3191 3191 3190 3189 3189 3188 3187 3187 3186 3185 3184 3183 3182 3181 3180 3179 3178
3196 3196 3196 3196 3196 3196 3196 3195 3194 3194 3195 3194 3194 3194 3193 3193 3192 3192 3191 3190 3189 3188 3188 3187 3186 3185 3184 3183 3182 3181 3180 3179 3178
3198 3198 3198 3198 3198 3197 3197 3196 3196 3196 3196 3197 3196 3196 3195 3194 3194 3193 3192 3191 3190 3189 3188 3187 3186 3185 3183 3182 3181 3180 3179 3178 3177
3198 3198 3199 3199 3198 3198 3198 3198 3198 3198 3198 3197 3197 3197 3196 3195 3194 3193 3193 3191 3190 3189 3188 3187 3185 3184 3183 3181 3180 3179 3178 3177 3176
3199 3199 3199 3198 3198 3198 3198 3199 3198 3198 3198 3198 3198 3197 3196 3195 3194 3194 3193 3191 3190 3189 3187 3186 3185 3183 3182 3180 3179 3178 3177 3176 3175
3197 3198 3198 3197 3198 3198 3198 3198 3198 3197 3197 3197 3197 3197 3196 3195 3194 3193 3192 3190 3189 3188 3186 3185 3184 3182 3181 3180 3178 3177 3176 3175 3175
3196 3197 3197 3197 3197 3197 3197 3197 3197 3196 3196 3196 3195 3195 3195 3194 3192 3191 3190 3189 3187 3186 3184 3183 3182 3181 3179 3178 3177 3176 3175 3174 3173
3195 3195 3196 3196 3196 3196 3196 3195 3195 3194 3194 3193 3192 3192 3192 3191 3190 3189 3188 3187 3186 3184 3182 3180 3179 3179 3178 3177 3175 3175 3174 3173 3172
3192 3193 3193 3193 3194 3194 3193 3193 3193 3192 3191 3190 3190 3189 3189 3188 3187 3187 3186 3185 3184 3182 3180 3178 3177 3176 3176 3175 3174 3173 3172 3171 3170
3189 3190 3190 3191 3191 3191 3190 3190 3189 3189 3188 3187 3186 3186 3186 3185 3184 3183 3182 3182 3181 3180 3178 3176 3175 3174 3173 3172 3171 3170 3169 3168 3167
3186 3187 3187 3186 3187 3187 3187 3186 3186 3185 3184 3184 3183 3182 3182 3181 3180 3179 3178 3178 3177 3176 3175 3174 3173 3171 3171 3170 3169 3168 3166 3165 3164
3182 3183 3183 3183 3183 3183 3183 3182 3181 3181 3180 3179 3178 3177 3176 3176 3176 3175 3174 3174 3173 3172 3171 3170 3169 3168 3167 3166 3165 3164 3163 3162 3161
3178 3178 3179 3179 3179 3179 3178 3177 3176 3176 3175 3174 3173 3172 3171 3170 3170 3170 3170 3169 3169 3167 3166 3165 3164 3163 3162 3161 3160 3159 3158 3157 3156
3173 3173 3173 3173 3173 3173 3172 3171 3170 3170 3169 3167 3166 3165 3165 3165 3164 3164 3163 3163 3163 3162 3160 3160 3158 3157 3156 3156 3155 3154 3153 3152 3150
3167 3167 3168 3167 3167 3167 3167 3166 3165 3165 3163 3160 3159 3158 3158 3158 3158 3157 3157 3157 3156 3155 3155 3154 3153 3151 3150 3150 3148 3147 3146 3145 3143
3162 3162 3162 3162 3161 3161 3161 3159 3159 3159 3157 3155 3153 3150 3151 3152 3153 3151 3150 3150 3148 3148 3148 3146 3146 3144 3142 3141 3139 3137 3136 3136 3135
3155 3155 3156 3156 3154 3153 3154 3153 3152 3151 3151 3149 3147 3143 3142 3143 3146 3146 3144 3142 3140 3139 3139 3137 3136 3134 3132 3129 3127 3127 3124 3123 3122
3148 3147 3147 3147 3146 3144 3145 3145 3144 3143 3142 3141 3140 3138 3136 3134 3133 3137 3137 3135 3133 3130 3129 3127 3123 3120 3117 3113 3115 3115 3113 3110 3109
3138 3138 3138 3138 3137 3137 3137 3136 3135 3134 3133 3132 3131 3130 3128 3127 3126 3123 3125 3126 3124 3122 3120 3119 3115 3112 3109 3105 3100 3104 3102 3100 3099